QPF
0.01 0.01 0.01 0.01 0.01 0.01 0.02 0.03 0.04 0.04 0.04 0.04 0.03 0.02 0.02 0.03 0.03 0.04 0.05 0.04 0.03 0.02 0.02 0.04 0.05 0.05 0.04 0.04 0.03 0.03 0.04 0.05 0.04 0.04 0.05 0.06 0.06 0.06 0.08 0.09 0.08 0.07 0.10
0.01 0.01 0.01 0.01 0.01 0.02 0.04 0.04 0.04 0.03 0.03 0.03 0.02 0.02 0.04 0.05 0.05 0.05 0.05 0.04 0.03 0.03 0.03 0.04 0.04 0.05 0.05 0.05 0.03 0.03 0.04 0.05 0.04 0.03 0.05 0.07 0.07 0.07 0.09 0.10 0.10 0.13 0.13
0.01 0.02 0.02 0.02 0.02 0.03 0.04 0.04 0.02 0.02 0.03 0.03 0.03 0.03 0.04 0.06 0.06 0.06 0.06 0.06 0.05 0.04 0.03 0.03 0.03 0.04 0.05 0.05 0.05 0.05 0.05 0.06 0.03 0.03 0.04 0.05 0.05 0.05 0.06 0.08 0.09 0.11 0.09
0.01 0.02 0.02 0.02 0.02 0.02 0.03 0.02 0.02 0.02 0.03 0.03 0.03 0.04 0.04 0.04 0.05 0.06 0.06 0.08 0.07 0.05 0.04 0.04 0.04 0.04 0.04 0.05 0.06 0.06 0.06 0.06 0.04 0.04 0.03 0.03 0.04 0.03 0.03 0.04 0.05 0.05 0.05
0.01 0.01 0.01 0.01 0.01 0.02 0.02 0.02 0.02 0.02 0.02 0.02 0.03 0.04 0.04 0.05 0.06 0.05 0.05 0.06 0.07 0.04 0.03 0.03 0.03 0.03 0.04 0.04 0.05 0.04 0.05 0.05 0.04 0.03 0.03 0.03 0.04 0.04 0.03 0.03 0.03 0.02 0.02
0.02 0.01 0.01 0.01 0.02 0.02 0.02 0.02 0.03 0.03 0.02 0.02 0.02 0.03 0.04 0.04 0.04 0.03 0.03 0.04 0.05 0.03 0.02 0.02 0.02 0.03 0.03 0.05 0.04 0.03 0.04 0.03 0.03 0.02 0.02 0.03 0.04 0.04 0.03 0.03 0.02 0.01 0.02
0.03 0.03 0.04 0.03 0.03 0.03 0.04 0.06 0.06 0.04 0.02 0.02 0.02 0.03 0.03 0.03 0.03 0.02 0.02 0.03 0.04 0.03 0.03 0.03 0.03 0.03 0.03 0.03 0.04 0.04 0.04 0.04 0.03 0.03 0.02 0.02 0.02 0.03 0.03 0.02 0.02 0.02 0.02
0.03 0.04 0.03 0.03 0.04 0.06 0.07 0.08 0.08 0.04 0.01 0.01 0.01 0.02 0.02 0.02 0.02 0.02 0.02 0.02 0.04 0.03 0.03 0.03 0.04 0.05 0.05 0.05 0.04 0.04 0.05 0.05 0.04 0.03 0.03 0.03 0.02 0.02 0.02 0.03 0.04 0.04 0.03
0.03 0.04 0.04 0.04 0.05 0.05 0.05 0.05 0.05 0.03 0.01 0.01 0.01 0.01 0.01 0.02 0.02 0.02 0.03 0.02 0.04 0.04 0.04 0.03 0.03 0.04 0.04 0.05 0.05 0.04 0.04 0.04 0.04 0.04 0.04 0.03 0.03 0.03 0.03 0.03 0.03 0.04 0.03
0.01 0.03 0.04 0.03 0.03 0.04 0.04 0.04 0.04 0.04 0.03 0.02 0.01 0.01 0.01 0.02 0.03 0.03 0.03 0.03 0.04 0.04 0.04 0.04 0.03 0.03 0.03 0.04 0.04 0.04 0.04 0.03 0.03 0.04 0.03 0.03 0.02 0.02 0.02 0.02 0.03 0.03 0.03
0.01 0.03 0.04 0.03 0.03 0.03 0.03 0.04 0.05 0.04 0.04 0.02 0.02 0.02 0.02 0.03 0.03 0.03 0.04 0.04 0.04 0.04 0.03 0.03 0.03 0.03 0.04 0.05 0.04 0.05 0.05 0.04 0.04 0.05 0.04 0.03 0.02 0.02 0.03 0.03 0.04 0.04 0.03
0.02 0.02 0.03 0.03 0.02 0.02 0.02 0.02 0.05 0.05 0.04 0.04 0.03 0.03 0.05 0.07 0.07 0.06 0.06 0.06 0.06 0.05 0.04 0.03 0.03 0.03 0.03 0.04 0.05 0.06 0.05 0.05 0.05 0.04 0.03 0.01 0.02 0.02 0.03 0.04 0.06 0.06 0.05
0.01 0.02 0.02 0.02 0.02 0.02 0.02 0.03 0.07 0.06 0.06 0.05 0.05 0.04 0.06 0.08 0.10 0.09 0.07 0.07 0.08 0.07 0.05 0.04 0.05 0.05 0.04 0.04 0.04 0.05 0.04 0.04 0.04 0.03 0.03 0.02 0.01 0.02 0.02 0.02 0.03 0.05 0.04
0.03 0.05 0.04 0.02 0.02 0.04 0.05 0.06 0.09 0.08 0.06 0.07 0.06 0.04 0.04 0.05 0.06 0.07 0.08 0.08 0.08 0.08 0.06 0.06 0.07 0.08 0.07 0.06 0.05 0.05 0.04 0.03 0.02 0.02 0.02 0.02 0.02 0.02 0.03 0.03 0.03 0.05 0.04
0.03 0.04 0.04 0.03 0.03 0.05 0.06 0.06 0.08 0.09 0.06 0.06 0.06 0.06 0.06 0.06 0.06 0.06 0.07 0.08 0.08 0.09 0.10 0.09 0.09 0.09 0.09 0.08 0.07 0.05 0.04 0.03 0.03 0.03 0.03 0.03 0.03 0.04 0.04 0.03 0.03 0.04 0.04
0.03 0.04 0.04 0.04 0.06 0.07 0.07 0.07 0.07 0.08 0.05 0.04 0.04 0.06 0.07 0.06 0.05 0.06 0.08 0.08 0.10 0.12 0.11 0.11 0.11 0.10 0.10 0.10 0.09 0.06 0.03 0.02 0.03 0.03 0.03 0.03 0.03 0.03 0.03 0.03 0.03 0.04 0.04
0.02 0.03 0.04 0.05 0.06 0.07 0.06 0.06 0.06 0.07 0.05 0.03 0.03 0.03 0.05 0.04 0.03 0.04 0.06 0.08 0.08 0.08 0.07 0.07 0.06 0.08 0.09 0.08 0.06 0.05 0.04 0.03 0.03 0.02 0.02 0.03 0.02 0.02 0.02 0.02 0.03 0.03 0.04
0.02 0.02 0.03 0.03 0.04 0.04 0.04 0.05 0.06 0.05 0.04 0.03 0.02 0.02 0.03 0.05 0.03 0.02 0.04 0.06 0.06 0.06 0.05 0.05 0.05 0.04 0.03 0.04 0.04 0.05 0.04 0.03 0.02 0.02 0.02 0.02 0.02 0.01 0.01 0.02 0.02 0.02 0.02
0.02 0.03 0.02 0.02 0.03 0.03 0.03 0.04 0.04 0.04 0.03 0.02 0.02 0.02 0.04 0.08 0.06 0.03 0.05 0.09 0.09 0.07 0.05 0.05 0.05 0.04 0.03 0.04 0.05 0.06 0.05 0.03 0.02 0.02 0.02 0.01 0.01 0.01 0.01 0.01 0.01 0.01 0.01
0.02 0.03 0.03 0.03 0.03 0.03 0.03 0.04 0.03 0.03 0.02 0.01 0.01 0.01 0.01 0.04 0.08 0.06 0.06 0.08 0.09 0.08 0.08 0.06 0.05 0.04 0.03 0.04 0.06 0.07 0.05 0.03 0.02 0.02 0.02 0.01 0.01 0.01 0.01 0.01 0.02 0.02 0.02
0.02 0.03 0.04 0.04 0.03 0.02 0.02 0.04 0.04 0.03 0.03 0.02 0.01 0.01 0.01 0.02 0.04 0.07 0.06 0.06 0.07 0.09 0.10 0.08 0.06 0.04 0.04 0.04 0.04 0.04 0.03 0.02 0.02 0.02 0.02 0.01 0.01 0.01 0.01 0.01 0.01 0.01 0.02
0.04 0.04 0.05 0.06 0.04 0.03 0.03 0.04 0.03 0.04 0.04 0.02 0.01 0.01 0.02 0.02 0.03 0.05 0.05 0.04 0.05 0.06 0.07 0.09 0.10 0.07 0.05 0.03 0.03 0.03 0.03 0.03 0.02 0.02 0.02 0.02 0.02 0.02 0.02 0.01 0.01 0.01 0.02
0.05 0.04 0.04 0.04 0.03 0.03 0.03 0.03 0.03 0.04 0.04 0.03 0.01 0.01 0.02 0.02 0.03 0.03 0.04 0.04 0.04 0.04 0.05 0.05 0.08 0.09 0.08 0.05 0.03 0.03 0.04 0.04 0.04 0.04 0.04 0.04 0.04 0.03 0.03 0.02 0.02 0.02 0.02
0.05 0.04 0.03 0.02 0.02 0.03 0.03 0.05 0.05 0.04 0.04 0.03 0.02 0.01 0.02 0.03 0.03 0.03 0.04 0.04 0.04 0.04 0.04 0.03 0.05 0.07 0.08 0.07 0.04 0.03 0.03 0.04 0.05 0.06 0.06 0.05 0.05 0.05 0.05 0.05 0.05 0.04 0.03
0.04 0.04 0.03 0.03 0.02 0.02 0.03 0.05 0.05 0.04 0.04 0.03 0.03 0.03 0.03 0.02 0.02 0.02 0.03 0.04 0.04 0.04 0.03 0.03 0.02 0.03 0.04 0.05 0.04 0.03 0.03 0.03 0.03 0.04 0.05 0.05 0.04 0.04 0.04 0.05 0.05 0.04 0.03
0.03 0.03 0.03 0.03 0.03 0.03 0.03 0.03 0.04 0.04 0.03 0.03 0.03 0.04 0.04 0.03 0.02 0.02 0.03 0.04 0.05 0.05 0.03 0.03 0.02 0.02 0.02 0.03 0.03 0.04 0.03 0.03 0.04 0.04 0.04 0.04 0.04 0.04 0.03 0.03 0.02 0.02 0.01
MSLP
1019.30 1018.95 1018.58 1018.13 1017.57 1016.88 1016.10 1015.24 1014.35 1013.50 1012.71 1012.03 1011.46 1011.02 1010.68 1010.44 1010.28 1010.19 1010.16 1010.20 1010.30 1010.46 1010.69 1010.96 1011.28 1011.63 1012.00 1012.37 1012.75 1013.11 1013.47 1013.80 1014.12 1014.42 1014.70 1014.95 1015.18 1015.40 1015.61 1015.83 1016.06 1016.32 1016.62
1019.83 1019.53 1019.19 1018.75 1018.20 1017.51 1016.71 1015.84 1014.94 1014.06 1013.24 1012.52 1011.91 1011.40 1010.99 1010.67 1010.43 1010.28 1010.20 1010.22 1010.33 1010.52 1010.78 1011.10 1011.45 1011.82 1012.17 1012.50 1012.82 1013.11 1013.41 1013.71 1014.02 1014.36 1014.71 1015.07 1015.42 1015.77 1016.08 1016.38 1016.65 1016.91 1017.16
1020.27 1020.00 1019.67 1019.24 1018.68 1018.00 1017.21 1016.35 1015.46 1014.59 1013.78 1013.05 1012.40 1011.83 1011.34 1010.93 1010.60 1010.36 1010.23 1010.20 1010.29 1010.49 1010.78 1011.13 1011.51 1011.88 1012.22 1012.52 1012.79 1013.03 1013.27 1013.55 1013.87 1014.25 1014.68 1015.15 1015.63 1016.10 1016.53 1016.91 1017.23 1017.49 1017.70
1020.62 1020.36 1020.03 1019.60 1019.05 1018.38 1017.61 1016.79 1015.94 1015.11 1014.32 1013.59 1012.92 1012.30 1011.74 1011.24 1010.80 1010.46 1010.24 1010.15 1010.21 1010.39 1010.69 1011.07 1011.47 1011.85 1012.20 1012.48 1012.72 1012.93 1013.15 1013.40 1013.73 1014.15 1014.64 1015.20 1015.79 1016.37 1016.90 1017.35 1017.71 1017.97 1018.16
1020.93 1020.67 1020.34 1019.90 1019.35 1018.70 1017.97 1017.19 1016.40 1015.62 1014.87 1014.16 1013.47 1012.81 1012.17 1011.56 1011.02 1010.57 1010.25 1010.08 1010.08 1010.24 1010.54 1010.93 1011.35 1011.77 1012.13 1012.43 1012.67 1012.88 1013.08 1013.34 1013.67 1014.11 1014.64 1015.25 1015.90 1016.55 1017.14 1017.64 1018.02 1018.28 1018.44
1021.23 1020.96 1020.62 1020.18 1019.64 1019.01 1018.32 1017.59 1016.86 1016.14 1015.42 1014.72 1014.02 1013.31 1012.60 1011.90 1011.25 1010.69 1010.26 1010.00 1009.93 1010.05 1010.33 1010.73 1011.19 1011.64 1012.04 1012.38 1012.66 1012.89 1013.11 1013.37 1013.71 1014.14 1014.68 1015.30 1015.96 1016.62 1017.22 1017.73 1018.12 1018.37 1018.50
1021.53 1021.26 1020.91 1020.47 1019.94 1019.33 1018.68 1018.00 1017.32 1016.64 1015.96 1015.27 1014.55 1013.80 1013.02 1012.23 1011.47 1010.80 1010.26 1009.91 1009.76 1009.83 1010.08 1010.48 1010.96 1011.46 1011.92 1012.33 1012.66 1012.94 1013.20 1013.48 1013.81 1014.23 1014.74 1015.32 1015.95 1016.57 1017.15 1017.63 1018.00 1018.24 1018.36
1021.82 1021.55 1021.20 1020.75 1020.23 1019.64 1019.02 1018.38 1017.74 1017.10 1016.44 1015.76 1015.02 1014.23 1013.39 1012.52 1011.67 1010.90 1010.26 1009.81 1009.58 1009.58 1009.79 1010.18 1010.67 1011.21 1011.74 1012.22 1012.63 1012.98 1013.29 1013.60 1013.94 1014.33 1014.79 1015.31 1015.86 1016.42 1016.93 1017.37 1017.71 1017.94 1018.06
1022.07 1021.80 1021.44 1021.00 1020.48 1019.91 1019.31 1018.70 1018.08 1017.47 1016.83 1016.14 1015.40 1014.58 1013.70 1012.77 1011.85 1010.99 1010.25 1009.71 1009.39 1009.31 1009.46 1009.81 1010.30 1010.87 1011.45 1012.00 1012.50 1012.93 1013.31 1013.67 1014.02 1014.39 1014.80 1015.24 1015.70 1016.17 1016.61 1017.00 1017.31 1017.54 1017.68
1022.23 1021.95 1021.59 1021.15 1020.64 1020.08 1019.49 1018.90 1018.31 1017.71 1017.08 1016.41 1015.66 1014.83 1013.93 1012.97 1011.99 1011.07 1010.26 1009.62 1009.21 1009.03 1009.10 1009.39 1009.84 1010.41 1011.02 1011.64 1012.21 1012.74 1013.19 1013.60 1013.98 1014.34 1014.71 1015.08 1015.47 1015.85 1016.22 1016.56 1016.86 1017.10 1017.29
1022.25 1021.98 1021.61 1021.16 1020.65 1020.10 1019.53 1018.95 1018.38 1017.79 1017.18 1016.53 1015.80 1014.98 1014.08 1013.12 1012.12 1011.16 1010.29 1009.57 1009.05 1008.77 1008.73 1008.92 1009.31 1009.84 1010.45 1011.10 1011.74 1012.34 1012.87 1013.35 1013.77 1014.14 1014.49 1014.83 1015.15 1015.47 1015.79 1016.10 1016.40 1016.67 1016.92
1022.14 1021.86 1021.49 1021.04 1020.53 1019.98 1019.42 1018.86 1018.30 1017.73 1017.15 1016.52 1015.82 1015.04 1014.17 1013.22 1012.24 1011.26 1010.34 1009.55 1008.94 1008.54 1008.37 1008.44 1008.72 1009.18 1009.76 1010.41 1011.08 1011.74 1012.35 1012.89 1013.37 1013.78 1014.14 1014.46 1014.75 1015.04 1015.33 1015.63 1015.94 1016.26 1016.57
1021.93 1021.63 1021.25 1020.80 1020.28 1019.74 1019.19 1018.64 1018.10 1017.56 1017.01 1016.41 1015.76 1015.02 1014.20 1013.29 1012.33 1011.35 1010.41 1009.57 1008.86 1008.34 1008.04 1007.97 1008.12 1008.47 1008.98 1009.60 1010.28 1010.97 1011.64 1012.25 1012.79 1013.26 1013.65 1013.98 1014.28 1014.56 1014.84 1015.14 1015.47 1015.82 1016.20
1021.66 1021.35 1020.95 1020.49 1019.98 1019.44 1018.90 1018.36 1017.84 1017.33 1016.80 1016.24 1015.63 1014.94 1014.17 1013.31 1012.39 1011.43 1010.48 1009.58 1008.80 1008.17 1007.74 1007.52 1007.54 1007.76 1008.17 1008.72 1009.38 1010.08 1010.79 1011.46 1012.07 1012.59 1013.03 1013.40 1013.72 1014.01 1014.30 1014.60 1014.95 1015.33 1015.75
1021.39 1021.06 1020.65 1020.18 1019.66 1019.13 1018.60 1018.08 1017.57 1017.07 1016.57 1016.03 1015.45 1014.80 1014.07 1013.26 1012.37 1011.44 1010.49 1009.57 1008.73 1008.01 1007.46 1007.11 1006.98 1007.08 1007.37 1007.84 1008.45 1009.14 1009.86 1010.57 1011.22 1011.80 1012.30 1012.72 1013.07 1013.39 1013.69 1014.01 1014.36 1014.76 1015.19
1021.17 1020.81 1020.38 1019.90 1019.39 1018.86 1018.34 1017.82 1017.32 1016.83 1016.32 1015.79 1015.22 1014.59 1013.89 1013.11 1012.25 1011.34 1010.41 1009.48 1008.60 1007.82 1007.18 1006.72 1006.47 1006.44 1006.62 1006.99 1007.52 1008.17 1008.89 1009.61 1010.31 1010.94 1011.49 1011.97 1012.37 1012.71 1013.04 1013.37 1013.72 1014.11 1014.53
1020.99 1020.61 1020.16 1019.67 1019.16 1018.64 1018.12 1017.60 1017.10 1016.59 1016.07 1015.52 1014.93 1014.29 1013.59 1012.83 1011.99 1011.11 1010.20 1009.28 1008.39 1007.58 1006.89 1006.35 1006.00 1005.85 1005.92 1006.20 1006.64 1007.23 1007.91 1008.64 1009.35 1010.03 1010.63 1011.16 1011.61 1012.00 1012.36 1012.70 1013.05 1013.43 1013.83
1020.82 1020.42 1019.97 1019.47 1018.96 1018.44 1017.92 1017.40 1016.88 1016.34 1015.78 1015.19 1014.56 1013.89 1013.17 1012.40 1011.58 1010.72 1009.84 1008.95 1008.09 1007.28 1006.56 1005.98 1005.56 1005.32 1005.30 1005.47 1005.82 1006.34 1006.97 1007.67 1008.39 1009.09 1009.74 1010.32 1010.83 1011.28 1011.68 1012.05 1012.41 1012.77 1013.15
1020.63 1020.21 1019.75 1019.25 1018.75 1018.24 1017.71 1017.18 1016.63 1016.04 1015.43 1014.78 1014.10 1013.37 1012.62 1011.84 1011.03 1010.20 1009.36 1008.52 1007.71 1006.93 1006.22 1005.62 1005.15 1004.85 1004.73 1004.80 1005.06 1005.48 1006.05 1006.71 1007.41 1008.13 1008.83 1009.47 1010.05 1010.57 1011.03 1011.44 1011.83 1012.20 1012.57
1020.37 1019.94 1019.47 1018.98 1018.49 1017.98 1017.45 1016.90 1016.32 1015.69 1015.02 1014.30 1013.55 1012.78 1011.99 1011.20 1010.40 1009.61 1008.83 1008.05 1007.29 1006.57 1005.89 1005.29 1004.79 1004.43 1004.23 1004.21 1004.36 1004.68 1005.16 1005.77 1006.45 1007.18 1007.91 1008.62 1009.27 1009.87 1010.41 1010.89 1011.33 1011.73 1012.11
1020.02 1019.58 1019.12 1018.65 1018.16 1017.66 1017.13 1016.56 1015.95 1015.27 1014.55 1013.78 1012.97 1012.16 1011.35 1010.55 1009.78 1009.04 1008.31 1007.61 1006.92 1006.25 1005.62 1005.03 1004.51 1004.10 1003.81 1003.68 1003.72 1003.94 1004.33 1004.86 1005.51 1006.23 1006.99 1007.76 1008.49 1009.18 1009.81 1010.37 1010.87 1011.32 1011.73
1019.61 1019.18 1018.73 1018.27 1017.79 1017.30 1016.77 1016.19 1015.54 1014.84 1014.07 1013.26 1012.42 1011.59 1010.77 1010.00 1009.26 1008.57 1007.92 1007.29 1006.67 1006.06 1005.46 1004.88 1004.33 1003.86 1003.49 1003.26 1003.18 1003.28 1003.57 1004.02 1004.61 1005.31 1006.09 1006.90 1007.70 1008.47 1009.19 1009.83 1010.41 1010.91 1011.36
1019.21 1018.79 1018.35 1017.91 1017.44 1016.95 1016.42 1015.83 1015.17 1014.44 1013.65 1012.82 1011.98 1011.15 1010.36 1009.61 1008.93 1008.31 1007.72 1007.16 1006.61 1006.04 1005.47 1004.88 1004.30 1003.77 1003.31 1002.97 1002.77 1002.75 1002.92 1003.28 1003.81 1004.48 1005.25 1006.08 1006.93 1007.76 1008.54 1009.25 1009.89 1010.44 1010.93
1018.88 1018.48 1018.06 1017.63 1017.18 1016.69 1016.15 1015.55 1014.88 1014.15 1013.36 1012.54 1011.72 1010.92 1010.17 1009.48 1008.86 1008.30 1007.78 1007.28 1006.78 1006.25 1005.68 1005.08 1004.46 1003.86 1003.31 1002.86 1002.55 1002.41 1002.47 1002.73 1003.18 1003.79 1004.53 1005.35 1006.21 1007.07 1007.88 1008.63 1009.29 1009.87 1010.37
1018.68 1018.31 1017.91 1017.49 1017.05 1016.56 1016.02 1015.42 1014.75 1014.02 1013.25 1012.46 1011.68 1010.94 1010.25 1009.62 1009.08 1008.58 1008.12 1007.67 1007.20 1006.68 1006.12 1005.49 1004.83 1004.17 1003.54 1003.00 1002.58 1002.34 1002.30 1002.46 1002.82 1003.36 1004.04 1004.82 1005.65 1006.48 1007.28 1008.01 1008.66 1009.23 1009.71
1018.65 1018.30 1017.93 1017.52 1017.08 1016.60 1016.06 1015.46 1014.80 1014.09 1013.36 1012.62 1011.89 1011.22 1010.60 1010.05 1009.57 1009.14 1008.73 1008.31 1007.87 1007.36 1006.78 1006.14 1005.44 1004.74 1004.05 1003.45 1002.96 1002.64 1002.51 1002.58 1002.86 1003.31 1003.91 1004.61 1005.36 1006.13 1006.86 1007.52 1008.12 1008.62 1009.04
Thickness
5776 5776 5774 5773 5770 5767 5765 5762 5759 5757 5755 5752 5749 5746 5744 5744 5743 5742 5741 5740 5738 5737 5735 5732 5730 5729 5727 5726 5725 5723 5721 5719 5719 5718 5715 5716 5717 5717 5718 5718 5718 5717 5717
5770 5771 5771 5770 5768 5765 5762 5759 5757 5755 5754 5752 5750 5747 5745 5743 5742 5741 5740 5738 5737 5735 5734 5731 5729 5727 5726 5724 5723 5721 5718 5716 5716 5714 5711 5709 5710 5712 5714 5714 5714 5714 5714
5768 5768 5767 5766 5765 5763 5761 5760 5757 5755 5754 5752 5748 5745 5742 5740 5738 5737 5737 5736 5735 5733 5732 5730 5728 5726 5725 5722 5721 5720 5717 5713 5713 5713 5710 5705 5702 5704 5708 5709 5710 5710 5710
5768 5767 5766 5765 5764 5763 5762 5759 5756 5754 5752 5750 5746 5742 5739 5737 5736 5736 5735 5734 5733 5732 5730 5728 5726 5724 5723 5721 5720 5718 5716 5714 5711 5710 5709 5708 5706 5702 5701 5704 5705 5706 5706
5768 5767 5766 5765 5764 5762 5760 5758 5755 5752 5750 5748 5745 5742 5739 5738 5736 5734 5733 5732 5731 5730 5728 5727 5725 5723 5721 5719 5718 5716 5715 5713 5710 5708 5707 5705 5703 5702 5699 5697 5699 5700 5702
5767 5766 5765 5763 5760 5759 5758 5756 5753 5750 5749 5747 5744 5741 5738 5736 5734 5732 5730 5729 5728 5727 5726 5725 5723 5721 5719 5718 5716 5715 5713 5711 5709 5707 5706 5704 5701 5699 5697 5694 5694 5694 5697
5763 5761 5759 5758 5757 5756 5755 5753 5750 5748 5746 5744 5742 5740 5737 5735 5733 5731 5729 5727 5726 5725 5724 5723 5721 5719 5718 5716 5715 5713 5711 5709 5707 5705 5704 5703 5701 5699 5697 5694 5691 5691 5693
5760 5760 5759 5758 5756 5755 5752 5751 5747 5745 5744 5742 5740 5738 5735 5733 5731 5729 5727 5726 5725 5724 5723 5721 5719 5717 5716 5714 5712 5710 5709 5707 5705 5704 5702 5700 5699 5697 5696 5694 5690 5688 5688
5757 5758 5757 5756 5755 5753 5751 5749 5746 5743 5741 5740 5738 5735 5733 5731 5729 5727 5725 5724 5723 5722 5720 5718 5717 5715 5713 5711 5710 5708 5706 5705 5703 5701 5699 5697 5696 5695 5694 5693 5691 5688 5684
5752 5754 5753 5753 5752 5752 5750 5747 5744 5741 5739 5737 5735 5734 5731 5729 5727 5724 5722 5721 5720 5719 5717 5716 5713 5712 5710 5709 5707 5705 5704 5702 5700 5698 5696 5695 5694 5693 5692 5691 5689 5688 5685
5747 5749 5750 5749 5748 5747 5745 5742 5740 5737 5735 5734 5732 5730 5728 5726 5724 5722 5720 5718 5717 5716 5714 5713 5711 5710 5707 5706 5704 5702 5700 5699 5697 5695 5694 5692 5691 5690 5689 5688 5686 5685 5683
5741 5743 5744 5743 5742 5740 5739 5737 5735 5733 5732 5730 5728 5726 5725 5723 5722 5720 5718 5715 5713 5712 5711 5710 5708 5707 5704 5702 5701 5698 5697 5695 5693 5692 5691 5690 5689 5687 5686 5685 5683 5682 5680
5735 5736 5736 5735 5735 5735 5733 5731 5730 5728 5727 5725 5723 5722 5721 5719 5719 5718 5715 5711 5709 5708 5707 5706 5705 5703 5701 5699 5698 5696 5694 5692 5690 5689 5688 5686 5685 5684 5683 5681 5680 5679 5678
5727 5727 5728 5728 5729 5729 5727 5725 5724 5723 5722 5720 5717 5716 5716 5715 5714 5712 5710 5707 5706 5704 5703 5702 5702 5700 5698 5696 5695 5692 5690 5689 5687 5686 5685 5683 5682 5681 5679 5678 5676 5674 5672
5718 5719 5720 5721 5721 5721 5720 5719 5718 5717 5716 5714 5712 5711 5710 5709 5708 5706 5704 5702 5701 5700 5699 5698 5697 5695 5693 5692 5690 5687 5686 5685 5683 5681 5680 5680 5679 5678 5676 5675 5673 5670 5668
5711 5713 5713 5714 5713 5713 5712 5712 5711 5709 5709 5707 5706 5706 5704 5703 5702 5700 5699 5698 5696 5695 5695 5693 5692 5691 5688 5688 5686 5684 5682 5680 5678 5676 5675 5674 5673 5673 5672 5671 5669 5667 5665
5703 5705 5706 5706 5706 5706 5706 5704 5703 5702 5701 5699 5699 5698 5697 5697 5696 5695 5694 5692 5691 5690 5689 5688 5687 5685 5684 5683 5682 5680 5678 5676 5674 5672 5670 5670 5669 5667 5666 5665 5663 5661 5660
5696 5697 5698 5698 5698 5698 5697 5697 5695 5693 5692 5690 5690 5690 5690 5689 5689 5689 5688 5686 5685 5683 5682 5682 5681 5680 5679 5677 5676 5675 5673 5671 5669 5667 5666 5664 5663 5662 5660 5658 5656 5655 5654
5690 5691 5690 5690 5689 5688 5688 5688 5686 5685 5684 5683 5683 5683 5683 5682 5683 5682 5681 5680 5678 5677 5676 5676 5675 5674 5673 5672 5671 5669 5667 5665 5663 5662 5661 5659 5658 5656 5654 5651 5649 5648 5648
5683 5683 5683 5683 5681 5680 5679 5678 5677 5676 5676 5677 5677 5676 5676 5676 5675 5674 5674 5673 5672 5670 5670 5669 5668 5667 5667 5666 5666 5664 5661 5659 5658 5656 5655 5653 5652 5650 5648 5646 5644 5642 5642
5675 5676 5675 5674 5673 5673 5671 5669 5668 5668 5670 5670 5670 5669 5669 5669 5669 5667 5666 5665 5664 5662 5661 5660 5659 5659 5659 5659 5658 5657 5655 5654 5652 5650 5649 5648 5646 5644 5642 5640 5639 5638 5636
5666 5666 5666 5665 5665 5664 5663 5662 5661 5662 5662 5662 5661 5661 5661 5662 5662 5660 5658 5657 5656 5654 5653 5651 5651 5651 5651 5651 5650 5649 5648 5647 5645 5644 5643 5641 5639 5637 5635 5633 5633 5631 5629
5659 5658 5658 5657 5656 5657 5656 5654 5655 5655 5654 5653 5652 5652 5653 5653 5653 5652 5650 5649 5648 5646 5644 5643 5643 5643 5643 5643 5642 5641 5640 5639 5638 5637 5636 5634 5632 5630 5628 5627 5626 5624 5622
5651 5650 5650 5650 5649 5650 5650 5649 5648 5648 5647 5645 5645 5644 5644 5644 5644 5643 5642 5641 5640 5639 5637 5636 5636 5636 5636 5635 5634 5633 5632 5631 5630 5629 5627 5626 5624 5622 5621 5620 5618 5617 5614
5643 5642 5642 5642 5643 5643 5643 5643 5642 5640 5639 5638 5638 5637 5637 5637 5636 5635 5634 5633 5633 5633 5631 5630 5630 5629 5629 5629 5627 5625 5625 5625 5623 5621 5619 5618 5616 5615 5613 5612 5610 5609 5607
5634 5634 5635 5636 5636 5636 5636 5636 5635 5634 5632 5631 5630 5629 5628 5627 5627 5626 5625 5625 5625 5625 5625 5624 5623 5623 5622 5621 5620 5619 5618 5617 5615 5612 5611 5610 5609 5608 5606 5605 5603 5602 5600